CZ-6A DEB, 54273

Orbit data source: Space-Track

CZ-6A DEB, 54273 is space debris in SSO originally from a launch on Fri, 11 Nov 2022 UTC launched from the Taiyaun Space Center, China (TSC). Debris objects in space refer to the collection of defunct objects orbiting the Earth. Examples of debris include non-operational satellites, rocket bodies, and fragments generated from explosions, collisions, or faulty payload assembly.

Loading next visibility...
Identifier
54273, 2022-151Q
Orbit
SSO
Country
Flag of CNCN / PRC
Related business
Manufacturer
SAST
Mission
Spacecraft
Bus & Motor
Unknown
Mass
Unknown
Launch date (UTC)
2022-11-11 (3 years ago)
Launch vehicle
Unknown
Launch site
Taiyaun Space Center, China (TSC)
Object type
Payload
Rocket body
Debris
Shape & HBR
Unknown shape, 0.1 m
Radar Cross Section
Small (<0.1 m²)

Expand to show TLE details & history
Last TLE update: 17 hours ago

TLE from 17 hours ago
0 CZ-6A DEB
1 54273U 22151Q   25354.83000531  .00002158  00000-0  97869-3 0  9999
2 54273  98.7978   4.9676 0025442  63.4734 296.9048 14.22776914160162
Epoch: 2025-12-20T19:55Z
TLE epoch observation values (Epoch: 2025-12-20T19:55:12.458Z)
Latitude
-0.00006°
Longitude
-23.48548°
Altitude
810.645 km
Speed
7.452 km/s
True Right ascension
00h 19m 52s
True Declination
0° 00' 00"
Sunlit
Object was in daylight at epoch
Visualization orbit readout
Latitude
Unknown
Longitude
Unknown
Altitude
Unknown
Speed
Unknown
Apparent Right ascension
Unknown
Apparent Declination
Unknown
Sunlit
N/A
Visualization observer readout
Local Sidereal Time
12:15:27
Azimuth
Unknown
Elevation
Unknown
Doppler factor
Unknown
Orbital elements
Apogee altitude
831.432 km
Perigee altitude
794.84 km
Semi-major axis
7,191.273 km
Eccentricity
0.00254
Inclination
98.7978°
RAAN
4.9676°
Arg. of periapsis
63.4734°
True anomaly
296.64444°
Mean anomaly
296.9048°
Eccentric anomaly
296.77466°
Mean motion
3.55905 °/min
Orbital period
101.15 mins
BSTAR
0.00097869
Loading maneuver chart data...
Computing Atmospheric mass density...
Loading historical data...
Loading historical data...
Loading historical data...
Loading historical data...
Loading historical data...
Loading historical data...
Loading historical data...

Documentation

Showing up to 5 results
|